EZY696U EGGD-EGAC

Flight info

Callsign EZY696U
Flight time 0h 48m
Altitude 27000
Route BCN P69 DIZIM N864 KISWO DCT AVTIC DCT MONTY UN864 BILVO UP6 TUPEM DCT REMSI DCT NINEB M148 MAGEE
Aircraft A320/M-SDE3FGHIRWY/LB1

Departure

Time 2026-04-25 07:04
Airport Bristol Airport (EGGD)

Arrival

Time 2026-04-25 07:53
Airport George Best Belfast City Airport (EGAC)
Time Latitude Longitude Altitude Speed Heading
2026-04-25 06:33 51.38564 -2.70908 620 ft 0 kts 266°
2026-04-25 06:53 51.38565 -2.70873 615 ft 2 kts 266°
2026-04-25 06:53 51.38568 -2.70845 608 ft 4 kts 205°
2026-04-25 06:53 51.38593 -2.70840 606 ft 3 kts 176°
2026-04-25 06:53 51.38578 -2.70838 618 ft 4 kts 176°
2026-04-25 06:54 51.38551 -2.70836 615 ft 4 kts 176°
2026-04-25 06:54 51.38528 -2.70833 610 ft 3 kts 176°
2026-04-25 06:57 51.38520 -2.70833 610 ft 5 kts 176°
2026-04-25 06:57 51.38479 -2.70836 612 ft 4 kts 204°
2026-04-25 06:57 51.38468 -2.70878 615 ft 9 kts 259°
2026-04-25 06:58 51.38462 -2.70960 614 ft 6 kts 267°
2026-04-25 06:58 51.38460 -2.71022 615 ft 8 kts 266°
2026-04-25 06:58 51.38455 -2.71162 617 ft 17 kts 266°
2026-04-25 06:58 51.38445 -2.71396 614 ft 25 kts 266°
2026-04-25 06:59 51.38434 -2.71691 606 ft 21 kts 264°
2026-04-25 06:59 51.38429 -2.71926 606 ft 21 kts 270°
2026-04-25 06:59 51.38425 -2.72153 615 ft 19 kts 266°
2026-04-25 06:59 51.38415 -2.72418 615 ft 27 kts 266°
2026-04-25 07:00 51.38409 -2.72599 615 ft 0 kts 267°
2026-04-25 07:02 51.38408 -2.72615 615 ft 4 kts 264°
2026-04-25 07:02 51.38403 -2.72718 615 ft 18 kts 266°
2026-04-25 07:02 51.38393 -2.72981 618 ft 26 kts 266°
2026-04-25 07:03 51.38379 -2.73240 625 ft 17 kts 255°
2026-04-25 07:03 51.38297 -2.73342 619 ft 13 kts 182°
2026-04-25 07:03 51.38238 -2.73314 631 ft 9 kts 144°
2026-04-25 07:03 51.38219 -2.73149 628 ft 26 kts 87°
2026-04-25 07:04 51.38244 -2.72413 624 ft 104 kts 87°
2026-04-25 07:04 51.38295 -2.70907 659 ft 159 kts 86°
2026-04-25 07:04 51.38366 -2.69126 1406 ft 163 kts 86°
2026-04-25 07:04 51.38425 -2.67290 2196 ft 168 kts 88°
2026-04-25 07:05 51.38474 -2.65292 2485 ft 192 kts 88°
2026-04-25 07:05 51.38558 -2.63042 2819 ft 215 kts 86°
2026-04-25 07:05 51.38651 -2.60514 3232 ft 239 kts 88°
2026-04-25 07:05 51.38728 -2.57747 3755 ft 258 kts 88°
2026-04-25 07:06 51.39120 -2.54911 4555 ft 267 kts 63°
2026-04-25 07:06 51.40415 -2.52785 5416 ft 274 kts 28°
2026-04-25 07:06 51.42249 -2.52072 6027 ft 281 kts 358°
2026-04-25 07:06 51.43524 -2.52496 6171 ft 278 kts 335°
2026-04-25 07:07 51.45342 -2.55249 6215 ft 275 kts 298°
2026-04-25 07:07 51.45897 -2.57106 6212 ft 274 kts 292°
2026-04-25 07:07 51.46643 -2.59918 6222 ft 274 kts 292°
2026-04-25 07:07 51.47388 -2.62728 6228 ft 274 kts 292°
2026-04-25 07:08 51.48221 -2.65475 6220 ft 275 kts 301°
2026-04-25 07:08 51.49249 -2.68056 6223 ft 274 kts 302°
2026-04-25 07:08 51.50282 -2.70624 6231 ft 274 kts 302°
2026-04-25 07:08 51.51323 -2.73197 6226 ft 274 kts 302°
2026-04-25 07:09 51.52366 -2.75766 6222 ft 275 kts 302°
2026-04-25 07:09 51.53408 -2.78336 6218 ft 275 kts 302°
2026-04-25 07:09 51.54447 -2.80911 6224 ft 275 kts 302°
2026-04-25 07:09 51.55483 -2.83493 6205 ft 275 kts 302°
2026-04-25 07:10 51.56519 -2.86076 6153 ft 275 kts 302°
2026-04-25 07:10 51.57550 -2.88643 6373 ft 274 kts 302°
2026-04-25 07:10 51.58589 -2.91234 6676 ft 276 kts 302°
2026-04-25 07:10 51.59631 -2.93836 6966 ft 277 kts 302°
2026-04-25 07:11 51.60676 -2.96446 7293 ft 277 kts 302°
2026-04-25 07:11 51.61724 -2.99065 7688 ft 279 kts 302°
2026-04-25 07:11 51.62776 -3.01694 8087 ft 280 kts 302°
2026-04-25 07:11 51.63829 -3.04339 8490 ft 281 kts 302°
2026-04-25 07:12 51.64889 -3.07001 8892 ft 283 kts 302°
2026-04-25 07:12 51.67024 -3.12369 9805 ft 288 kts 302°
2026-04-25 07:12 51.68112 -3.15099 10544 ft 296 kts 302°
2026-04-25 07:13 51.69268 -3.18006 10779 ft 320 kts 302°
2026-04-25 07:13 51.70646 -3.20943 11171 ft 337 kts 314°
2026-04-25 07:13 51.72517 -3.23268 11826 ft 344 kts 330°
2026-04-25 07:13 51.74749 -3.24716 12540 ft 350 kts 346°
2026-04-25 07:14 51.77181 -3.25115 13243 ft 355 kts
2026-04-25 07:14 51.79650 -3.24602 13918 ft 360 kts
2026-04-25 07:14 51.82141 -3.23980 14535 ft 364 kts
2026-04-25 07:14 51.84660 -3.23347 15149 ft 368 kts
2026-04-25 07:15 51.87207 -3.22708 15762 ft 372 kts
2026-04-25 07:15 51.89778 -3.22065 16373 ft 376 kts
2026-04-25 07:15 51.92384 -3.21420 16979 ft 380 kts
2026-04-25 07:15 51.95010 -3.20774 17595 ft 384 kts
2026-04-25 07:16 51.97667 -3.20122 18168 ft 388 kts
2026-04-25 07:16 52.00353 -3.19458 18721 ft 392 kts
2026-04-25 07:16 52.03059 -3.18785 19227 ft 395 kts
2026-04-25 07:16 52.05809 -3.18399 19719 ft 398 kts
2026-04-25 07:17 52.08588 -3.18183 20220 ft 402 kts
2026-04-25 07:17 52.11391 -3.17972 20712 ft 405 kts
2026-04-25 07:17 52.14219 -3.17758 21190 ft 408 kts
2026-04-25 07:17 52.17067 -3.17538 21670 ft 412 kts
2026-04-25 07:18 52.19941 -3.17314 22150 ft 415 kts
2026-04-25 07:18 52.22836 -3.17090 22616 ft 418 kts
2026-04-25 07:18 52.25758 -3.16864 23057 ft 422 kts
2026-04-25 07:18 52.28706 -3.16635 23482 ft 426 kts
2026-04-25 07:19 52.31677 -3.16405 23889 ft 430 kts
2026-04-25 07:19 52.34677 -3.16174 24261 ft 432 kts
2026-04-25 07:19 52.37690 -3.15944 24640 ft 435 kts
2026-04-25 07:19 52.40717 -3.15711 25013 ft 437 kts
2026-04-25 07:20 52.43767 -3.15471 25381 ft 440 kts
2026-04-25 07:20 52.46791 -3.15233 25741 ft 442 kts
2026-04-25 07:20 52.49913 -3.14987 26110 ft 444 kts
2026-04-25 07:20 52.53009 -3.14792 26475 ft 446 kts 360°
2026-04-25 07:21 52.56117 -3.14767 26835 ft 448 kts 358°
2026-04-25 07:21 52.59240 -3.14875 27141 ft 450 kts 356°
2026-04-25 07:21 52.62356 -3.15047 27212 ft 443 kts 356°
2026-04-25 07:21 52.65417 -3.15226 27220 ft 437 kts 356°
2026-04-25 07:22 52.68448 -3.15383 27218 ft 435 kts 357°
2026-04-25 07:22 52.71472 -3.15505 27217 ft 435 kts 357°
2026-04-25 07:22 52.74497 -3.15595 27215 ft 434 kts 358°
2026-04-25 07:22 52.77517 -3.15672 27214 ft 434 kts 358°
2026-04-25 07:23 52.80534 -3.15747 27216 ft 434 kts 358°
2026-04-25 07:23 52.83554 -3.15826 27213 ft 434 kts 358°
2026-04-25 07:23 52.86571 -3.15913 27216 ft 434 kts 358°
2026-04-25 07:23 52.89589 -3.16003 27215 ft 434 kts 358°
2026-04-25 07:24 52.92605 -3.16094 27213 ft 434 kts 358°
2026-04-25 07:24 52.95623 -3.16186 27211 ft 434 kts 358°
2026-04-25 07:24 52.98637 -3.16277 27218 ft 433 kts 358°
2026-04-25 07:24 53.01654 -3.16367 27216 ft 433 kts 358°
2026-04-25 07:25 53.04664 -3.16458 27219 ft 433 kts 358°
2026-04-25 07:25 53.07673 -3.16546 27218 ft 433 kts 358°
2026-04-25 07:25 53.10683 -3.16638 27217 ft 432 kts 358°
2026-04-25 07:25 53.13691 -3.16739 27215 ft 432 kts 358°
2026-04-25 07:26 53.16699 -3.16838 27217 ft 432 kts 358°
2026-04-25 07:26 53.19705 -3.16930 27216 ft 432 kts 358°
2026-04-25 07:26 53.22710 -3.17021 27222 ft 432 kts 358°
2026-04-25 07:26 53.25714 -3.17116 27221 ft 432 kts 358°
2026-04-25 07:27 53.28676 -3.17207 27215 ft 431 kts 358°
2026-04-25 07:27 53.31671 -3.17292 27212 ft 431 kts 358°
2026-04-25 07:27 53.34667 -3.17379 27210 ft 431 kts 358°
2026-04-25 07:27 53.37665 -3.17471 27210 ft 431 kts 358°
2026-04-25 07:28 53.40659 -3.17565 27205 ft 430 kts 358°
2026-04-25 07:28 53.43655 -3.17661 27201 ft 430 kts 358°
2026-04-25 07:28 53.46647 -3.17758 27194 ft 430 kts 358°
2026-04-25 07:28 53.49640 -3.17851 27194 ft 430 kts 358°
2026-04-25 07:29 53.52631 -3.17941 27198 ft 430 kts 358°
2026-04-25 07:29 53.55625 -3.18032 27199 ft 430 kts 358°
2026-04-25 07:29 53.58616 -3.18125 27203 ft 430 kts 358°
2026-04-25 07:29 53.61612 -3.18222 27201 ft 430 kts 358°
2026-04-25 07:30 53.64603 -3.18319 27199 ft 430 kts 358°
2026-04-25 07:30 53.67571 -3.18820 27203 ft 428 kts 346°
2026-04-25 07:30 53.70397 -3.20297 27202 ft 425 kts 335°
2026-04-25 07:30 53.72987 -3.22653 27203 ft 422 kts 323°
2026-04-25 07:31 53.75248 -3.25781 27205 ft 418 kts 311°
2026-04-25 07:31 53.77018 -3.29635 27202 ft 414 kts 300°
2026-04-25 07:31 53.78587 -3.33720 27201 ft 415 kts 300°
2026-04-25 07:31 53.80158 -3.37816 27199 ft 415 kts 300°
2026-04-25 07:32 53.81730 -3.41906 27195 ft 415 kts 301°
2026-04-25 07:32 53.83323 -3.45982 27196 ft 415 kts 301°
2026-04-25 07:32 53.84927 -3.50050 27191 ft 415 kts 301°
2026-04-25 07:32 53.86533 -3.54112 27189 ft 415 kts 301°
2026-04-25 07:33 53.88140 -3.58184 27189 ft 415 kts 301°
2026-04-25 07:33 53.89743 -3.62258 27195 ft 416 kts 301°
2026-04-25 07:33 53.91341 -3.66342 27194 ft 416 kts 301°
2026-04-25 07:33 53.92935 -3.70432 27205 ft 416 kts 301°
2026-04-25 07:34 53.94529 -3.74540 27184 ft 417 kts 301°
2026-04-25 07:34 53.96120 -3.78654 27179 ft 417 kts 301°
2026-04-25 07:34 53.97713 -3.82779 27178 ft 418 kts 301°
2026-04-25 07:34 53.99307 -3.86907 27177 ft 418 kts 301°
2026-04-25 07:35 54.00904 -3.91038 27175 ft 418 kts 301°
2026-04-25 07:35 54.02511 -3.95201 27202 ft 427 kts 301°
2026-04-25 07:35 54.04151 -3.99464 27204 ft 433 kts 301°
2026-04-25 07:35 54.05798 -4.03756 27199 ft 434 kts 301°
2026-04-25 07:36 54.07448 -4.08064 27203 ft 435 kts 301°
2026-04-25 07:36 54.09100 -4.12377 27081 ft 433 kts 301°
2026-04-25 07:36 54.10733 -4.16638 26134 ft 427 kts 301°
2026-04-25 07:36 54.12343 -4.20847 25121 ft 421 kts 301°
2026-04-25 07:37 54.13930 -4.25007 24162 ft 416 kts 301°
2026-04-25 07:37 54.15499 -4.29131 23078 ft 412 kts 301°
2026-04-25 07:37 54.17047 -4.33207 22093 ft 406 kts 301°
2026-04-25 07:37 54.18550 -4.37168 21603 ft 388 kts 301°
2026-04-25 07:38 54.19987 -4.40954 21148 ft 373 kts 301°
2026-04-25 07:38 54.21380 -4.44631 20692 ft 367 kts 301°
2026-04-25 07:38 54.22758 -4.48287 20226 ft 365 kts 301°
2026-04-25 07:38 54.24130 -4.51935 19762 ft 365 kts 301°
2026-04-25 07:39 54.25499 -4.55580 19302 ft 364 kts 301°
2026-04-25 07:39 54.26861 -4.59217 18835 ft 363 kts 301°
2026-04-25 07:39 54.28218 -4.62850 18362 ft 362 kts 301°
2026-04-25 07:39 54.29573 -4.66478 17862 ft 361 kts 301°
2026-04-25 07:40 54.30921 -4.70080 17405 ft 358 kts 301°
2026-04-25 07:40 54.32258 -4.73660 16975 ft 356 kts 301°
2026-04-25 07:40 54.33585 -4.77221 16541 ft 353 kts 301°
2026-04-25 07:40 54.34903 -4.80755 16098 ft 351 kts 301°
2026-04-25 07:41 54.36216 -4.84280 15657 ft 350 kts 301°
2026-04-25 07:41 54.37523 -4.87792 15219 ft 349 kts 301°
2026-04-25 07:41 54.38827 -4.91299 14792 ft 348 kts 301°
2026-04-25 07:41 54.40209 -4.94707 14254 ft 350 kts 311°
2026-04-25 07:42 54.41936 -4.97665 13763 ft 351 kts 315°
2026-04-25 07:42 54.43679 -5.00585 13297 ft 349 kts 315°
2026-04-25 07:42 54.45412 -5.03488 12844 ft 347 kts 315°
2026-04-25 07:42 54.47129 -5.06372 12393 ft 345 kts 315°
2026-04-25 07:43 54.48837 -5.09247 11932 ft 343 kts 315°
2026-04-25 07:43 54.50535 -5.12112 11478 ft 341 kts 315°
2026-04-25 07:43 54.52221 -5.14966 11015 ft 339 kts 314°
2026-04-25 07:43 54.53903 -5.17810 10566 ft 338 kts 315°
2026-04-25 07:44 54.55563 -5.20607 10361 ft 328 kts 315°
2026-04-25 07:44 54.57163 -5.23302 10237 ft 316 kts 314°
2026-04-25 07:44 54.58704 -5.25906 10091 ft 304 kts 314°
2026-04-25 07:44 54.60192 -5.28427 9504 ft 298 kts 314°
2026-04-25 07:45 54.61659 -5.30916 8908 ft 293 kts 314°
2026-04-25 07:45 54.63101 -5.33369 8392 ft 289 kts 314°
2026-04-25 07:45 54.64531 -5.35802 7887 ft 289 kts 314°
2026-04-25 07:45 54.65964 -5.38241 7494 ft 288 kts 314°
2026-04-25 07:46 54.67395 -5.40675 7046 ft 289 kts 314°
2026-04-25 07:46 54.68814 -5.43093 6708 ft 285 kts 314°
2026-04-25 07:46 54.70225 -5.45506 6196 ft 287 kts 314°
2026-04-25 07:46 54.71657 -5.47962 5595 ft 293 kts 314°
2026-04-25 07:47 54.73108 -5.50451 4982 ft 292 kts 314°
2026-04-25 07:47 54.74532 -5.52888 4371 ft 284 kts 314°
2026-04-25 07:47 54.75908 -5.55244 3949 ft 271 kts 314°
2026-04-25 07:47 54.77213 -5.57498 3767 ft 259 kts 311°
2026-04-25 07:48 54.78101 -5.60077 3646 ft 244 kts 285°
2026-04-25 07:48 54.78223 -5.62894 3548 ft 229 kts 259°
2026-04-25 07:48 54.77923 -5.64598 3476 ft 222 kts 242°
2026-04-25 07:48 54.77166 -5.66929 3368 ft 222 kts 239°
2026-04-25 07:49 54.76385 -5.69235 3269 ft 220 kts 233°
2026-04-25 07:49 54.75332 -5.71012 3113 ft 208 kts 214°
2026-04-25 07:49 54.74142 -5.72438 2862 ft 208 kts 214°
2026-04-25 07:49 54.72971 -5.73847 2597 ft 199 kts 214°
2026-04-25 07:50 54.71877 -5.75164 2332 ft 185 kts 214°
2026-04-25 07:50 54.70861 -5.76387 2109 ft 171 kts 214°
2026-04-25 07:50 54.69927 -5.77511 1884 ft 155 kts 214°
2026-04-25 07:50 54.69075 -5.78536 1672 ft 145 kts 214°
2026-04-25 07:51 54.68259 -5.79516 1466 ft 141 kts 214°
2026-04-25 07:51 54.67457 -5.80479 1270 ft 140 kts 214°
2026-04-25 07:51 54.66662 -5.81434 1079 ft 139 kts 214°
2026-04-25 07:51 54.65873 -5.82381 879 ft 138 kts 214°
2026-04-25 07:52 54.65090 -5.83326 685 ft 137 kts 214°
2026-04-25 07:52 54.64312 -5.84263 482 ft 136 kts 214°
2026-04-25 07:52 54.63530 -5.85196 278 ft 136 kts 214°
2026-04-25 07:52 54.62743 -5.86125 109 ft 137 kts 215°
2026-04-25 07:53 54.61974 -5.87055 22 ft 127 kts 215°
2026-04-25 07:53 54.61514 -5.87612 13 ft 32 kts 214°
2026-04-25 07:53 54.61381 -5.87762 14 ft 17 kts 210°
2026-04-25 07:53 54.61318 -5.87791 14 ft 8 kts 159°
2026-04-25 07:54 54.61289 -5.87737 15 ft 4 kts 123°
2026-04-25 07:54 54.61273 -5.87696 15 ft 10 kts 124°
2026-04-25 07:54 54.61279 -5.87572 18 ft 10 kts 43°
2026-04-25 07:54 54.61331 -5.87507 20 ft 11 kts 35°
2026-04-25 07:55 54.61406 -5.87397 21 ft 11 kts 54°
2026-04-25 07:55 54.61457 -5.87313 21 ft 10 kts 35°
2026-04-25 07:55 54.61508 -5.87252 21 ft 8 kts 34°
2026-04-25 07:55 54.61540 -5.87202 21 ft 5 kts 72°
2026-04-25 07:56 54.61523 -5.87165 21 ft 4 kts 144°
2026-04-25 07:56 54.61506 -5.87150 21 ft 2 kts 155°
2026-04-25 07:56 54.61503 -5.87148 24 ft 1 kts 155°
2026-04-25 07:56 54.61499 -5.87145 23 ft 0 kts 155°